Météo par heure à Ali-Yurt

Ce jour, 13 Mai, Jeudi

Heure Température Précipitation Vent Pression Humidité
00:00 +11°C° 0 mm 1 m/s 699 mmHg 80%
01:00 +11°C° 0 mm 1 m/s 699 mmHg 79%
02:00 +11°C° 0 mm 1 m/s 699 mmHg 77%
03:00 +11°C° 0 mm 1 m/s 699 mmHg 76%
04:00 +11°C° 0 mm 1 m/s 699 mmHg 74%
05:00 +12°C° 0 mm 1 m/s 699 mmHg 71%
06:00 +13°C° 0 mm 1 m/s 700 mmHg 69%
07:00 +15°C° 0 mm 1 m/s 700 mmHg 64%
08:00 +19°C° 0 mm 1 m/s 700 mmHg 58%
09:00 +20°C° 0 mm 2 m/s 701 mmHg 53%
10:00 +21°C° 0 mm 2 m/s 701 mmHg 51%
11:00 +23°C° 0 mm 2 m/s 701 mmHg 49%
12:00 +24°C° 0 mm 3 m/s 701 mmHg 48%
13:00 +24°C° 0 mm 3 m/s 701 mmHg 48%
14:00 +25°C° 0 mm 3 m/s 701 mmHg 49%
15:00 +25°C° 0 mm 3 m/s 701 mmHg 49%
16:00 +24°C° 0 mm 2 m/s 701 mmHg 55%
17:00 +23°C° 0 mm 2 m/s 701 mmHg 62%
18:00 +21°C° 0 mm 2 m/s 701 mmHg 68%
19:00 +19°C° 0 mm 2 m/s 701 mmHg 71%
20:00 +18°C° 0 mm 2 m/s 701 mmHg 73%
21:00 +16°C° 0 mm 1 m/s 702 mmHg 76%
22:00 +16°C° 0 mm 1 m/s 701 mmHg 74%
23:00 +16°C° 0 mm 1 m/s 701 mmHg 73%

Demain, 14 Mai, Vendredi

Heure Température Précipitation Vent Pression Humidité
00:00 +15°C° 0 mm 1 m/s 700 mmHg 72%
01:00 +15°C° 0 mm 1 m/s 700 mmHg 71%
02:00 +15°C° 0 mm 1 m/s 700 mmHg 70%
03:00 +15°C° 0 mm 1 m/s 700 mmHg 69%
04:00 +15°C° 0 mm 1 m/s 700 mmHg 68%
05:00 +16°C° 0 mm 1 m/s 700 mmHg 66%
06:00 +16°C° 0 mm 1 m/s 701 mmHg 65%
07:00 +20°C° 0 mm 1 m/s 701 mmHg 59%
08:00 +22°C° 0 mm 1 m/s 701 mmHg 53%
09:00 +25°C° 0 mm 1 m/s 701 mmHg 47%
10:00 +26°C° 0 mm 2 m/s 701 mmHg 45%
11:00 +27°C° 0 mm 2 m/s 701 mmHg 44%
12:00 +28°C° 0 mm 3 m/s 701 mmHg 43%
13:00 +28°C° 0 mm 3 m/s 701 mmHg 43%
14:00 +28°C° 0 mm 3 m/s 701 mmHg 44%
15:00 +28°C° 0 mm 3 m/s 701 mmHg 44%
16:00 +27°C° 0 mm 2 m/s 701 mmHg 51%
17:00 +26°C° 0 mm 2 m/s 700 mmHg 58%
18:00 +25°C° 0 mm 1 m/s 700 mmHg 65%
19:00 +23°C° 0 mm 1 m/s 700 mmHg 66%
20:00 +21°C° 0 mm 2 m/s 700 mmHg 67%
21:00 +19°C° 0 mm 2 m/s 700 mmHg 67%
22:00 +18°C° 0 mm 2 m/s 700 mmHg 66%
23:00 +18°C° 0 mm 2 m/s 700 mmHg 64%

Après-demain, 15 Mai, Samedi

Heure Température Précipitation Vent Pression Humidité
00:00 +17°C° 0 mm 2 m/s 699 mmHg 62%
01:00 +17°C° 0 mm 2 m/s 699 mmHg 61%
02:00 +17°C° 0 mm 2 m/s 699 mmHg 60%
03:00 +16°C° 0 mm 2 m/s 699 mmHg 59%
04:00 +17°C° 0 mm 2 m/s 700 mmHg 60%
05:00 +17°C° 0 mm 2 m/s 700 mmHg 61%
06:00 +18°C° 0 mm 2 m/s 700 mmHg 62%
07:00 +20°C° 0 mm 2 m/s 700 mmHg 56%
08:00 +24°C° 0 mm 1 m/s 701 mmHg 49%
09:00 +26°C° 0 mm 1 m/s 701 mmHg 43%
10:00 +27°C° 0 mm 1 m/s 701 mmHg 42%
11:00 +28°C° 0 mm 2 m/s 701 mmHg 42%
12:00 +28°C° 0 mm 2 m/s 702 mmHg 42%
13:00 +28°C° 0 mm 2 m/s 701 mmHg 44%
14:00 +28°C° 0 mm 2 m/s 701 mmHg 45%
15:00 +28°C° 0 mm 2 m/s 701 mmHg 47%
16:00 +27°C° 0.4 mm 2 m/s 701 mmHg 54%
17:00 +26°C° 0.4 mm 1 m/s 701 mmHg 61%
18:00 +25°C° 0.4 mm 1 m/s 701 mmHg 68%
19:00 +23°C° 0.1 mm 1 m/s 700 mmHg 70%
20:00 +20°C° 0.1 mm 2 m/s 700 mmHg 72%
21:00 +18°C° 0.1 mm 2 m/s 700 mmHg 74%
22:00 +18°C° 0 mm 2 m/s 700 mmHg 72%
23:00 +18°C° 0 mm 2 m/s 700 mmHg 70%

16 Mai, Dimanche

Heure Température Précipitation Vent Pression Humidité
00:00 +17°C° 0 mm 2 m/s 699 mmHg 68%
01:00 +17°C° 0 mm 2 m/s 699 mmHg 68%
02:00 +17°C° 0 mm 2 m/s 699 mmHg 67%
03:00 +16°C° 0 mm 2 m/s 699 mmHg 67%
04:00 +17°C° 0 mm 2 m/s 699 mmHg 66%
05:00 +18°C° 0 mm 1 m/s 699 mmHg 65%
06:00 +19°C° 0 mm 1 m/s 699 mmHg 65%
07:00 +21°C° 0 mm 1 m/s 699 mmHg 58%
08:00 +23°C° 0 mm 1 m/s 698 mmHg 51%
09:00 +25°C° 0 mm 1 m/s 698 mmHg 44%
10:00 +26°C° 0 mm 2 m/s 698 mmHg 43%
11:00 +27°C° 0 mm 3 m/s 698 mmHg 42%
12:00 +28°C° 0 mm 3 m/s 698 mmHg 41%
13:00 +28°C° 0 mm 3 m/s 697 mmHg 41%
14:00 +28°C° 0 mm 3 m/s 697 mmHg 41%
15:00 +29°C° 0 mm 3 m/s 697 mmHg 42%
16:00 +28°C° 0 mm 2 m/s 697 mmHg 47%
17:00 +27°C° 0 mm 2 m/s 696 mmHg 53%
18:00 +26°C° 0 mm 1 m/s 696 mmHg 59%
19:00 +24°C° 0 mm 1 m/s 696 mmHg 58%
20:00 +20°C° 0 mm 2 m/s 696 mmHg 58%
21:00 +18°C° 0 mm 2 m/s 696 mmHg 57%
22:00 +18°C° 0 mm 2 m/s 695 mmHg 53%
23:00 +17°C° 0 mm 2 m/s 695 mmHg 49%

17 Mai, Lundi

Heure Température Précipitation Vent Pression Humidité
00:00 +17°C° 0 mm 3 m/s 695 mmHg 46%
01:00 +17°C° 0 mm 3 m/s 695 mmHg 45%
02:00 +16°C° 0 mm 2 m/s 695 mmHg 44%
03:00 +16°C° 0 mm 2 m/s 694 mmHg 43%
04:00 +17°C° 0 mm 2 m/s 694 mmHg 46%
05:00 +17°C° 0 mm 2 m/s 695 mmHg 49%
06:00 +18°C° 0 mm 2 m/s 695 mmHg 52%
07:00 +21°C° 0 mm 1 m/s 695 mmHg 47%
08:00 +24°C° 0 mm 1 m/s 695 mmHg 42%
09:00 +26°C° 0 mm 1 m/s 695 mmHg 37%
10:00 +27°C° 0 mm 2 m/s 696 mmHg 37%
11:00 +28°C° 0 mm 2 m/s 696 mmHg 36%
12:00 +29°C° 0 mm 3 m/s 696 mmHg 36%
13:00 +29°C° 0 mm 3 m/s 696 mmHg 36%
14:00 +29°C° 0 mm 3 m/s 696 mmHg 36%
15:00 +29°C° 0 mm 2 m/s 695 mmHg 37%
16:00 +27°C° 0 mm 2 m/s 696 mmHg 45%
17:00 +26°C° 0 mm 2 m/s 696 mmHg 54%
18:00 +25°C° 0 mm 2 m/s 696 mmHg 63%
19:00 +22°C° 0.4 mm 3 m/s 697 mmHg 72%
20:00 +20°C° 0.4 mm 3 m/s 697 mmHg 80%
21:00 +18°C° 0.4 mm 3 m/s 698 mmHg 89%
22:00 +17°C° 0.2 mm 3 m/s 698 mmHg 88%
23:00 +17°C° 0.2 mm 3 m/s 698 mmHg 88%

18 Mai, Mardi

Heure Température Précipitation Vent Pression Humidité
00:00 +16°C° 0.2 mm 3 m/s 698 mmHg 88%
01:00 +16°C° 0 mm 3 m/s 698 mmHg 87%
02:00 +16°C° 0 mm 2 m/s 698 mmHg 86%
03:00 +16°C° 0 mm 2 m/s 698 mmHg 85%
04:00 +16°C° 0.1 mm 2 m/s 698 mmHg 85%
05:00 +17°C° 0.1 mm 2 m/s 699 mmHg 84%
06:00 +17°C° 0.1 mm 2 m/s 699 mmHg 83%
07:00 +17°C° 0.1 mm 3 m/s 700 mmHg 81%
08:00 +18°C° 0.1 mm 4 m/s 700 mmHg 79%
09:00 +18°C° 0.1 mm 4 m/s 700 mmHg 78%
10:00 +18°C° 0.3 mm 4 m/s 701 mmHg 78%
11:00 +19°C° 0.3 mm 4 m/s 701 mmHg 79%
12:00 +19°C° 0.3 mm 4 m/s 701 mmHg 79%
13:00 +18°C° 1.6 mm 3 m/s 701 mmHg 83%
14:00 +18°C° 1.6 mm 3 m/s 701 mmHg 87%
15:00 +17°C° 1.6 mm 2 m/s 701 mmHg 91%
16:00 +17°C° 1.8 mm 2 m/s 702 mmHg 91%
17:00 +16°C° 1.8 mm 3 m/s 702 mmHg 91%
18:00 +16°C° 1.8 mm 3 m/s 702 mmHg 91%
19:00 +16°C° 0.1 mm 3 m/s 702 mmHg 91%
20:00 +16°C° 0.1 mm 3 m/s 702 mmHg 90%
21:00 +15°C° 0.1 mm 2 m/s 702 mmHg 89%
22:00 +15°C° 0 mm 2 m/s 702 mmHg 88%
23:00 +15°C° 0 mm 2 m/s 702 mmHg 87%
Voir plus

Nous avons besoin de votre consentement

Meteoprog et ses fournisseurs de services peuvent stocker et accéder à des données personnelles telles que des cookies, des identifiants d'appareils ou d'autres technologies similaires sur votre appareil et traiter ces données pour personnaliser le contenu et les publicités, ainsi que pour fournir des fonctionnalités de médias sociaux et analyser le trafic.

  • Stocker et/ou accéder à des informations sur votre appareil

    Des cookies, des identifiants d'appareils ou d'autres informations peuvent être stockés ou accessibles sur votre appareil aux fins indiquées ci-dessus.

  • Annonces et contenus personnalisés, mesure des annonces et des contenus, connaissance de l'audience et développement de produits

    Les annonces et le contenu peuvent être personnalisés en fonction d'un profil. D'autres données peuvent être ajoutées pour mieux personnaliser les annonces et le contenu. Les performances des publicités et du contenu peuvent être mesurées. Il est possible d'obtenir des informations sur le public qui a vu les publicités et le contenu. Ces données peuvent être utilisées pour développer ou améliorer l'expérience de l'utilisateur, les systèmes et les logiciels.

En cliquant sur "J'accepte", vous autorisez l'utilisation de cookies, des identifiants d'appareils, des balises web ou d'autres technologies similaires. Vos paramètres peuvent être modifiés dans le navigateur de votre appareil.

Dans certains cas, des intérêts légitimes peuvent être invoqués plutôt qu'un consentement. Vous pouvez en savoir plus à ce sujet dans notre Politique de confidentialité et de cookies.